Time,TemperatureF,DewpointF,PressureIn,WindDirection,WindDirectionDegrees,WindSpeedMPH,WindSpeedGustMPH,Humidity,HourlyPrecipIn,Conditions,Clouds,dailyrainin,SoftwareType,DateUTC
2013-05-25 00:00:00,41.7,39.6,29.92,SE,124,3.6,7.6,92,0.04,,-RA,0.00,VWS V13.00,2013-05-25 04:00:00,
2013-05-25 00:01:00,41.7,39.6,29.92,SE,124,3.6,3.6,92,0.04,,-RA,0.00,VWS V13.00,2013-05-25 04:01:00,
2013-05-25 00:06:00,41.5,39.4,29.92,SE,127,4.9,5.8,92,0.04,,-RA,0.00,VWS V13.00,2013-05-25 04:06:00,
2013-05-25 00:12:00,41.5,39.4,29.95,SW,220,3.1,8.1,92,0.04,,-RA,0.00,VWS V13.00,2013-05-25 04:12:00,
2013-05-25 00:17:00,41.5,39.4,29.95,SSW,208,2.2,10.1,92,0.04,,-RA,0.00,VWS V13.00,2013-05-25 04:17:00,
2013-05-25 00:22:00,41.5,39.4,29.95,SSW,206,0.0,8.7,92,0.04,,-RA,0.00,VWS V13.00,2013-05-25 04:22:00,
2013-05-25 00:27:00,41.5,39.4,29.92,SSE,147,3.1,8.7,92,0.04,,-RA,0.00,VWS V13.00,2013-05-25 04:27:00,
2013-05-25 00:32:00,41.5,39.4,29.92,NNE,13,0.0,8.7,92,0.04,,-RA,0.00,VWS V13.00,2013-05-25 04:32:00,
2013-05-25 00:37:00,41.4,39.2,29.92,SE,125,2.7,8.7,92,0.04,,-RA,0.00,VWS V13.00,2013-05-25 04:37:00,
2013-05-25 00:42:00,41.2,39.0,29.92,East,86,0.0,5.8,92,0.08,,-RA,0.04,VWS V13.00,2013-05-25 04:42:00,
2013-05-25 00:47:00,41.2,39.3,29.92,SSW,204,0.0,5.8,93,0.08,,-RA,0.04,VWS V13.00,2013-05-25 04:47:00,
2013-05-25 00:52:00,41.0,39.1,29.92,SSW,202,2.7,5.8,93,0.08,,-RA,0.04,VWS V13.00,2013-05-25 04:52:00,
2013-05-25 00:57:00,41.0,39.1,29.92,SSE,166,2.7,5.8,93,0.08,,-RA,0.04,VWS V13.00,2013-05-25 04:57:00,
2013-05-25 01:02:00,41.2,39.3,29.92,SSE,163,3.6,5.4,93,0.04,,-RA,0.04,VWS V13.00,2013-05-25 05:02:00,
2013-05-25 01:07:00,41.0,39.1,29.92,SE,125,0.0,5.4,93,0.12,,-RA,0.12,VWS V13.00,2013-05-25 05:07:00,
2013-05-25 01:12:00,41.0,39.1,29.92,ENE,69,2.7,5.4,93,0.12,,-RA,0.12,VWS V13.00,2013-05-25 05:12:00,
2013-05-25 01:17:00,41.0,39.1,29.92,SSW,198,4.0,5.4,93,0.12,,-RA,0.12,VWS V13.00,2013-05-25 05:17:00,
2013-05-25 01:23:00,41.0,39.1,29.92,SE,141,0.0,2.7,93,0.12,,-RA,0.12,VWS V13.00,2013-05-25 05:23:00,
2013-05-25 01:28:00,41.0,39.1,29.92,NNE,27,2.7,5.8,93,0.12,,-RA,0.12,VWS V13.00,2013-05-25 05:28:00,
2013-05-25 01:33:00,41.0,39.1,29.92,South,171,0.0,5.8,93,0.12,,-RA,0.12,VWS V13.00,2013-05-25 05:33:00,
2013-05-25 01:38:00,41.0,39.1,29.92,East,91,7.6,7.6,93,0.12,,OVC050,0.12,VWS V13.00,2013-05-25 05:38:00,
2013-05-25 01:43:00,40.8,39.2,29.92,South,182,3.1,7.6,94,0.08,,OVC050,0.12,VWS V13.00,2013-05-25 05:43:00,
2013-05-25 01:48:00,41.0,39.4,29.92,SE,124,3.6,7.6,94,0.08,,OVC050,0.12,VWS V13.00,2013-05-25 05:48:00,
2013-05-25 01:53:00,41.0,39.4,29.92,North,349,2.7,7.6,94,0.08,,OVC050,0.12,VWS V13.00,2013-05-25 05:53:00,
2013-05-25 01:58:00,41.0,39.4,29.92,WSW,257,5.8,7.6,94,0.08,,OVC050,0.12,VWS V13.00,2013-05-25 05:58:00,
2013-05-25 02:03:00,40.8,39.2,29.92,SE,134,4.0,4.9,94,0.12,,OVC050,0.16,VWS V13.00,2013-05-25 06:03:00,
2013-05-25 02:08:00,40.8,39.2,29.92,East,98,2.2,7.6,94,0.12,,OVC050,0.16,VWS V13.00,2013-05-25 06:08:00,
2013-05-25 02:13:00,41.0,39.4,29.92,SSW,206,4.0,8.3,94,0.12,,OVC050,0.16,VWS V13.00,2013-05-25 06:13:00,
2013-05-25 02:18:00,40.8,39.2,29.92,SSW,203,2.2,8.3,94,0.12,,OVC050,0.16,VWS V13.00,2013-05-25 06:18:00,
2013-05-25 02:23:00,40.8,39.2,29.92,ESE,123,3.6,6.7,94,0.04,,OVC050,0.16,VWS V13.00,2013-05-25 06:23:00,
2013-05-25 02:29:00,41.0,39.4,29.89,SSE,165,0.0,7.2,94,0.04,,OVC050,0.16,VWS V13.00,2013-05-25 06:29:00,
2013-05-25 02:34:00,41.0,39.4,29.89,SSE,166,3.1,7.2,94,0.04,,OVC050,0.16,VWS V13.00,2013-05-25 06:34:00,
2013-05-25 02:39:00,41.0,39.4,29.89,SSE,164,2.2,7.2,94,0.04,,OVC055,0.16,VWS V13.00,2013-05-25 06:39:00,
2013-05-25 02:44:00,41.0,39.4,29.89,South,185,3.1,7.6,94,0.04,,OVC055,0.16,VWS V13.00,2013-05-25 06:44:00,
2013-05-25 02:49:00,40.8,39.5,29.89,SSW,203,0.0,7.6,95,0.04,,OVC055,0.16,VWS V13.00,2013-05-25 06:49:00,
2013-05-25 02:54:00,40.8,39.5,29.89,SSE,167,2.2,7.6,95,0.04,,OVC055,0.16,VWS V13.00,2013-05-25 06:54:00,
2013-05-25 02:59:00,41.0,39.4,29.89,WSW,240,2.2,7.6,94,0.04,,OVC055,0.16,VWS V13.00,2013-05-25 06:59:00,
2013-05-25 03:04:00,41.0,39.4,29.89,South,172,2.7,5.4,94,0.00,,OVC055,0.16,VWS V13.00,2013-05-25 07:04:00,
2013-05-25 03:09:00,40.8,39.5,29.89,ESE,115,2.7,6.3,95,0.00,,OVC055,0.16,VWS V13.00,2013-05-25 07:09:00,
2013-05-25 03:14:00,40.8,39.5,29.89,SSW,208,4.5,6.3,95,0.04,,OVC055,0.20,VWS V13.00,2013-05-25 07:14:00,
2013-05-25 03:19:00,40.6,39.3,29.89,SW,221,0.0,6.3,95,0.04,,OVC055,0.20,VWS V13.00,2013-05-25 07:19:00,
2013-05-25 03:24:00,40.6,39.3,29.89,SW,236,0.0,5.4,95,0.04,,OVC055,0.20,VWS V13.00,2013-05-25 07:24:00,
2013-05-25 03:29:00,40.6,39.3,29.89,SSE,168,0.0,6.7,95,0.04,,OVC055,0.20,VWS V13.00,2013-05-25 07:29:00,
2013-05-25 03:35:00,40.8,39.5,29.89,SE,138,0.0,6.7,95,0.04,,OVC055,0.20,VWS V13.00,2013-05-25 07:35:00,
2013-05-25 03:40:00,40.8,39.5,29.89,SE,140,3.6,6.7,95,0.04,,-RA,0.20,VWS V13.00,2013-05-25 07:40:00,
2013-05-25 03:45:00,40.8,39.5,29.89,SW,234,3.1,5.4,95,0.04,,-RA,0.20,VWS V13.00,2013-05-25 07:45:00,
2013-05-25 03:50:00,41.0,39.7,29.89,South,181,2.2,7.6,95,0.04,,-RA,0.20,VWS V13.00,2013-05-25 07:50:00,
2013-05-25 03:55:00,41.0,39.7,29.89,South,189,3.6,7.6,95,0.08,,-RA,0.24,VWS V13.00,2013-05-25 07:55:00,
2013-05-25 04:00:00,41.0,39.7,29.89,South,181,3.1,7.6,95,0.08,,-RA,0.24,VWS V13.00,2013-05-25 08:00:00,
2013-05-25 04:05:00,41.0,39.7,29.89,South,178,4.0,4.0,95,0.08,,-RA,0.24,VWS V13.00,2013-05-25 08:05:00,
2013-05-25 04:10:00,41.0,39.7,29.89,South,172,2.7,4.0,95,0.08,,-RA,0.24,VWS V13.00,2013-05-25 08:10:00,
2013-05-25 04:15:00,41.0,39.7,29.89,South,169,4.0,5.4,95,0.08,,-RA,0.24,VWS V13.00,2013-05-25 08:15:00,
2013-05-25 04:20:00,41.2,39.9,29.89,South,172,3.1,5.4,95,0.08,,-RA,0.24,VWS V13.00,2013-05-25 08:20:00,
2013-05-25 04:25:00,41.2,39.9,29.89,SSE,157,0.0,5.8,95,0.04,,-RA,0.24,VWS V13.00,2013-05-25 08:25:00,
2013-05-25 04:30:00,41.2,39.9,29.89,SSE,149,2.2,6.3,95,0.04,,-RA,0.24,VWS V13.00,2013-05-25 08:30:00,
2013-05-25 04:35:00,41.2,39.9,29.89,SE,131,2.7,6.3,95,0.04,,OVC055,0.24,VWS V13.00,2013-05-25 08:35:00,
2013-05-25 04:40:00,41.2,39.9,29.89,West,269,2.7,2.7,95,0.04,,OVC055,0.24,VWS V13.00,2013-05-25 08:40:00,
2013-05-25 04:45:00,41.2,39.9,29.89,ESE,121,3.1,5.4,95,0.04,,OVC055,0.24,VWS V13.00,2013-05-25 08:45:00,
2013-05-25 04:51:00,41.2,39.9,29.89,SSW,209,8.1,10.1,95,0.04,,OVC055,0.24,VWS V13.00,2013-05-25 08:51:00,
2013-05-25 04:56:00,41.2,39.9,29.89,SSE,157,3.1,10.1,95,0.04,,OVC055,0.24,VWS V13.00,2013-05-25 08:56:00,
2013-05-25 05:01:00,41.2,39.9,29.89,West,272,3.6,3.6,95,0.04,,OVC055,0.24,VWS V13.00,2013-05-25 09:01:00,
2013-05-25 05:06:00,41.2,39.9,29.89,South,183,2.2,4.9,95,0.00,,OVC055,0.24,VWS V13.00,2013-05-25 09:06:00,
2013-05-25 05:11:00,41.4,40.0,29.89,SSE,156,2.2,5.8,95,0.00,,OVC055,0.24,VWS V13.00,2013-05-25 09:11:00,
2013-05-25 05:16:00,41.4,40.0,29.89,East,86,2.7,5.8,95,0.00,,OVC055,0.24,VWS V13.00,2013-05-25 09:16:00,
2013-05-25 05:21:00,41.5,40.2,29.89,South,187,3.1,4.0,95,0.00,,OVC055,0.24,VWS V13.00,2013-05-25 09:21:00,
2013-05-25 05:26:00,41.5,40.2,29.89,ENE,74,2.7,5.8,95,0.00,,OVC055,0.24,VWS V13.00,2013-05-25 09:26:00,
2013-05-25 05:31:00,41.5,40.2,29.89,SSW,207,2.7,6.3,95,0.00,,OVC055,0.24,VWS V13.00,2013-05-25 09:31:00,
2013-05-25 05:36:00,41.5,40.5,29.89,South,173,2.2,6.3,96,0.00,,OVC046,0.24,VWS V13.00,2013-05-25 09:36:00,
2013-05-25 05:41:00,41.5,40.5,29.89,SSW,200,2.7,4.9,96,0.00,,OVC046,0.24,VWS V13.00,2013-05-25 09:41:00,
2013-05-25 05:46:00,41.7,40.7,29.89,WNW,289,2.7,5.4,96,0.00,,OVC046,0.24,VWS V13.00,2013-05-25 09:46:00,
2013-05-25 05:51:00,41.7,40.7,29.89,SSE,158,2.2,5.4,96,0.00,,OVC046,0.24,VWS V13.00,2013-05-25 09:51:00,
2013-05-25 05:56:00,41.7,40.7,29.89,SSW,203,6.3,6.3,96,0.00,,OVC046,0.24,VWS V13.00,2013-05-25 09:56:00,
2013-05-25 06:01:00,41.7,40.7,29.89,South,186,4.9,4.9,96,0.00,,OVC046,0.24,VWS V13.00,2013-05-25 10:01:00,
2013-05-25 06:07:00,41.7,40.7,29.89,SE,142,2.7,6.3,96,0.00,,OVC046,0.24,VWS V13.00,2013-05-25 10:07:00,
2013-05-25 06:12:00,41.7,40.7,29.89,WSW,251,0.0,6.3,96,0.00,,OVC046,0.24,VWS V13.00,2013-05-25 10:12:00,
2013-05-25 06:17:00,41.7,40.7,29.89,SE,125,3.6,6.3,96,0.00,,OVC046,0.24,VWS V13.00,2013-05-25 10:17:00,
2013-05-25 06:22:00,41.7,40.7,29.89,SSW,211,0.0,4.9,96,0.00,,OVC046,0.24,VWS V13.00,2013-05-25 10:22:00,
2013-05-25 06:27:00,41.7,40.7,29.89,ESE,118,5.8,5.8,96,0.00,,OVC046,0.24,VWS V13.00,2013-05-25 10:27:00,
2013-05-25 06:32:00,41.7,40.7,29.89,SSE,149,2.2,5.8,96,0.00,,OVC046,0.24,VWS V13.00,2013-05-25 10:32:00,
2013-05-25 06:37:00,41.9,40.8,29.89,SW,225,5.8,7.6,96,0.00,,OVC044,0.24,VWS V13.00,2013-05-25 10:37:00,
2013-05-25 06:42:00,41.9,40.8,29.92,South,189,5.8,5.8,96,0.00,,OVC044,0.24,VWS V13.00,2013-05-25 10:42:00,
2013-05-25 06:47:00,41.9,40.8,29.92,SSE,165,4.0,7.2,96,0.00,,OVC044,0.24,VWS V13.00,2013-05-25 10:47:00,
2013-05-25 06:52:00,41.9,40.8,29.92,WSW,247,3.6,7.2,96,0.04,,OVC044,0.28,VWS V13.00,2013-05-25 10:52:00,
2013-05-25 06:57:00,41.9,40.8,29.92,WSW,242,2.7,7.2,96,0.04,,OVC044,0.28,VWS V13.00,2013-05-25 10:57:00,
2013-05-25 07:02:00,41.9,40.8,29.92,SSE,168,3.1,3.1,96,0.04,,OVC044,0.28,VWS V13.00,2013-05-25 11:02:00,
2013-05-25 07:07:00,42.1,41.0,29.92,NE,56,0.0,5.4,96,0.04,,OVC044,0.28,VWS V13.00,2013-05-25 11:07:00,
2013-05-25 07:12:00,42.1,41.0,29.92,SSE,160,3.6,5.4,96,0.04,,OVC044,0.28,VWS V13.00,2013-05-25 11:12:00,
2013-05-25 07:17:00,42.1,41.0,29.92,South,175,5.4,5.8,96,0.04,,OVC044,0.28,VWS V13.00,2013-05-25 11:17:00,
2013-05-25 07:23:00,42.3,41.2,29.92,NW,325,3.6,4.0,96,0.04,,OVC044,0.28,VWS V13.00,2013-05-25 11:23:00,
2013-05-25 07:28:00,42.3,41.2,29.92,SE,146,3.1,4.0,96,0.04,,OVC044,0.28,VWS V13.00,2013-05-25 11:28:00,
2013-05-25 07:33:00,42.4,41.4,29.92,SSW,197,2.2,6.3,96,0.04,,OVC044,0.28,VWS V13.00,2013-05-25 11:33:00,
2013-05-25 07:38:00,42.6,41.6,29.92,SSW,207,3.1,6.3,96,0.04,,OVC055,0.28,VWS V13.00,2013-05-25 11:38:00,
2013-05-25 07:43:00,43.0,41.7,29.92,South,184,3.1,4.0,95,0.04,,OVC055,0.28,VWS V13.00,2013-05-25 11:43:00,
2013-05-25 07:48:00,43.2,41.8,29.92,WSW,247,0.0,6.7,95,0.04,,OVC055,0.28,VWS V13.00,2013-05-25 11:48:00,
2013-05-25 07:53:00,43.2,41.8,29.92,SW,230,3.6,8.1,95,0.04,,OVC055,0.28,VWS V13.00,2013-05-25 11:53:00,
2013-05-25 07:58:00,43.2,41.8,29.92,SE,127,0.0,8.1,95,0.04,,OVC055,0.28,VWS V13.00,2013-05-25 11:58:00,
2013-05-25 08:03:00,43.3,42.0,29.92,SE,131,3.1,3.1,95,0.00,,OVC044,0.28,VWS V13.00,2013-05-25 12:03:00,
2013-05-25 08:08:00,43.5,42.2,29.92,East,92,2.2,7.6,95,0.00,,OVC044,0.28,VWS V13.00,2013-05-25 12:08:00,
2013-05-25 08:13:00,43.7,42.4,29.92,SSE,156,0.0,7.6,95,0.00,,OVC055,0.28,VWS V13.00,2013-05-25 12:13:00,
2013-05-25 08:18:00,43.9,42.5,29.92,SSE,166,2.7,7.6,95,0.00,,OVC055,0.28,VWS V13.00,2013-05-25 12:18:00,
2013-05-25 08:23:00,44.1,42.7,29.92,SSE,159,3.6,4.0,95,0.00,,OVC055,0.28,VWS V13.00,2013-05-25 12:23:00,
2013-05-25 08:28:00,44.4,43.1,29.92,SSE,158,4.9,5.4,95,0.00,,OVC055,0.28,VWS V13.00,2013-05-25 12:28:00,
2013-05-25 08:34:00,44.4,43.1,29.92,SE,133,3.6,5.4,95,0.00,,OVC055,0.28,VWS V13.00,2013-05-25 12:34:00,
2013-05-25 08:39:00,44.4,43.1,29.92,SSE,155,0.0,6.3,95,0.00,,OVC060,0.28,VWS V13.00,2013-05-25 12:39:00,
2013-05-25 08:44:00,44.4,43.1,29.92,SE,137,4.0,5.8,95,0.00,,OVC060,0.28,VWS V13.00,2013-05-25 12:44:00,
2013-05-25 08:49:00,44.4,43.1,29.92,ESE,120,3.6,8.1,95,0.00,,OVC060,0.28,VWS V13.00,2013-05-25 12:49:00,
2013-05-25 08:54:00,44.6,43.0,29.92,SSE,164,2.7,8.1,94,0.00,,OVC060,0.28,VWS V13.00,2013-05-25 12:54:00,
2013-05-25 08:59:00,44.8,43.2,29.92,South,169,0.0,8.1,94,0.00,,OVC060,0.28,VWS V13.00,2013-05-25 12:59:00,
2013-05-25 09:04:00,44.8,43.2,29.92,East,95,2.7,4.0,94,0.00,,OVC060,0.28,VWS V13.00,2013-05-25 13:04:00,
2013-05-25 09:09:00,45.0,43.1,29.92,SE,138,6.3,6.3,93,0.00,,OVC060,0.28,VWS V13.00,2013-05-25 13:09:00,
2013-05-25 09:14:00,45.0,43.1,29.92,ESE,123,0.0,9.6,93,0.00,,OVC060,0.28,VWS V13.00,2013-05-25 13:14:00,
2013-05-25 09:19:00,45.1,43.0,29.92,North,1,2.2,9.6,92,0.00,,OVC060,0.28,VWS V13.00,2013-05-25 13:19:00,
2013-05-25 09:24:00,45.1,43.0,29.92,South,187,4.0,5.4,92,0.00,,OVC060,0.28,VWS V13.00,2013-05-25 13:24:00,
2013-05-25 09:29:00,45.1,42.7,29.92,SSE,165,2.2,5.8,91,0.00,,OVC060,0.28,VWS V13.00,2013-05-25 13:29:00,
2013-05-25 09:34:00,45.3,42.8,29.92,West,260,5.8,6.3,91,0.00,,OVC070,0.28,VWS V13.00,2013-05-25 13:34:00,
2013-05-25 09:39:00,45.3,42.6,29.92,ENE,68,0.0,7.6,90,0.00,,OVC070,0.28,VWS V13.00,2013-05-25 13:39:00,
2013-05-25 09:44:00,45.3,42.6,29.92,South,170,4.0,4.9,90,0.00,,OVC070,0.28,VWS V13.00,2013-05-25 13:44:00,
2013-05-25 09:49:00,45.3,42.3,29.92,SSW,193,2.7,5.8,89,0.00,,OVC070,0.28,VWS V13.00,2013-05-25 13:49:00,
2013-05-25 09:54:00,45.5,42.5,29.92,South,185,3.6,8.1,89,0.00,,OVC070,0.28,VWS V13.00,2013-05-25 13:54:00,
2013-05-25 10:00:00,45.3,42.3,29.92,South,177,0.0,8.1,89,0.00,,OVC070,0.28,VWS V13.00,2013-05-25 14:00:00,
2013-05-25 10:05:00,45.1,41.8,29.92,NNE,29,5.4,5.4,88,0.00,,OVC070,0.28,VWS V13.00,2013-05-25 14:05:00,
2013-05-25 10:10:00,45.1,41.8,29.92,South,170,3.1,5.4,88,0.00,,OVC070,0.28,VWS V13.00,2013-05-25 14:10:00,
2013-05-25 10:15:00,45.1,41.8,29.92,ENE,77,2.2,6.3,88,0.00,,OVC070,0.28,VWS V13.00,2013-05-25 14:15:00,
2013-05-25 10:20:00,45.1,41.8,29.92,East,88,3.6,6.3,88,0.00,,OVC070,0.28,VWS V13.00,2013-05-25 14:20:00,
2013-05-25 10:25:00,45.3,41.7,29.92,SW,235,6.3,6.3,87,0.00,,OVC070,0.28,VWS V13.00,2013-05-25 14:25:00,
2013-05-25 10:30:00,45.9,42.5,29.92,SSE,168,6.3,7.2,88,0.00,,OVC070,0.28,VWS V13.00,2013-05-25 14:30:00,
2013-05-25 10:35:00,45.9,42.2,29.92,South,177,2.7,7.6,87,0.00,,OVC070,0.28,VWS V13.00,2013-05-25 14:35:00,
2013-05-25 10:40:00,46.2,42.6,29.92,SE,128,3.1,7.6,87,0.00,,OVC065,0.28,VWS V13.00,2013-05-25 14:40:00,
2013-05-25 10:45:00,46.4,42.5,29.92,SSW,208,5.4,7.2,86,0.00,,OVC065,0.28,VWS V13.00,2013-05-25 14:45:00,
2013-05-25 10:50:00,46.4,42.5,29.92,South,186,3.6,8.3,86,0.00,,OVC065,0.28,VWS V13.00,2013-05-25 14:50:00,
2013-05-25 10:55:00,46.6,42.3,29.92,SSE,161,0.0,8.3,85,0.00,,OVC065,0.28,VWS V13.00,2013-05-25 14:55:00,
2013-05-25 11:00:00,46.6,42.3,29.92,ESE,115,0.0,8.3,85,0.00,,OVC065,0.28,VWS V13.00,2013-05-25 15:00:00,
2013-05-25 11:05:00,46.8,42.5,29.92,SW,229,0.0,4.9,85,0.00,,OVC065,0.28,VWS V13.00,2013-05-25 15:05:00,
2013-05-25 11:10:00,46.9,42.4,29.95,WSW,249,2.7,6.3,84,0.00,,OVC065,0.28,VWS V13.00,2013-05-25 15:10:00,
2013-05-25 11:15:00,46.9,42.0,29.95,NE,53,0.0,6.7,83,0.00,,OVC065,0.28,VWS V13.00,2013-05-25 15:15:00,
2013-05-25 11:20:00,47.3,42.1,29.95,SSE,162,2.7,3.6,82,0.00,,OVC065,0.28,VWS V13.00,2013-05-25 15:20:00,
2013-05-25 11:26:00,47.5,42.0,29.92,ESE,107,4.0,8.3,81,0.00,,OVC065,0.28,VWS V13.00,2013-05-25 15:26:00,
2013-05-25 11:31:00,47.5,42.0,29.92,SSW,207,7.6,8.3,81,0.00,,OVC065,0.28,VWS V13.00,2013-05-25 15:31:00,
2013-05-25 11:36:00,47.7,41.2,29.92,South,188,5.4,8.3,78,0.00,,OVC042,0.28,VWS V13.00,2013-05-25 15:36:00,
2013-05-25 11:41:00,47.7,40.8,29.95,SSE,149,6.3,6.3,77,0.00,,OVC042,0.28,VWS V13.00,2013-05-25 15:41:00,
2013-05-25 11:46:00,47.8,40.7,29.95,SW,217,4.0,6.3,76,0.00,,OVC042,0.28,VWS V13.00,2013-05-25 15:46:00,
2013-05-25 11:51:00,47.8,40.7,29.95,SSE,152,5.8,6.3,76,0.00,,OVC042,0.28,VWS V13.00,2013-05-25 15:51:00,
2013-05-25 11:56:00,48.0,40.5,29.95,NE,43,5.4,6.3,75,0.00,,OVC042,0.28,VWS V13.00,2013-05-25 15:56:00,
2013-05-25 12:01:00,48.0,40.5,29.95,South,172,2.7,5.8,75,0.00,,OVC042,0.28,VWS V13.00,2013-05-25 16:01:00,
2013-05-25 12:06:00,48.2,40.3,29.95,North,1,0.0,5.8,74,0.00,,OVC042,0.28,VWS V13.00,2013-05-25 16:06:00,
2013-05-25 12:11:00,48.4,40.1,29.92,North,357,4.9,7.6,73,0.00,,OVC042,0.28,VWS V13.00,2013-05-25 16:11:00,
2013-05-25 12:16:00,48.6,40.0,29.92,NW,322,0.0,7.6,72,0.00,,OVC042,0.28,VWS V13.00,2013-05-25 16:16:00,
2013-05-25 12:21:00,48.6,40.0,29.92,South,181,4.0,4.0,72,0.00,,OVC042,0.28,VWS V13.00,2013-05-25 16:21:00,
2013-05-25 12:26:00,48.7,40.1,29.92,SSE,149,3.1,6.3,72,0.00,,OVC042,0.28,VWS V13.00,2013-05-25 16:26:00,
2013-05-25 12:32:00,48.6,39.2,29.92,East,95,4.0,9.6,70,0.00,,-RA,0.28,VWS V13.00,2013-05-25 16:32:00,
2013-05-25 12:37:00,48.6,38.9,29.92,SE,144,3.1,9.6,69,0.00,,OVC042,0.28,VWS V13.00,2013-05-25 16:37:00,
2013-05-25 12:42:00,48.6,39.2,29.92,SSW,194,3.1,11.0,70,0.00,,-RA,0.28,VWS V13.00,2013-05-25 16:42:00,
2013-05-25 12:47:00,48.6,38.5,29.92,SSE,167,0.0,11.0,68,0.00,,-RA,0.28,VWS V13.00,2013-05-25 16:47:00,
2013-05-25 12:52:00,48.7,38.7,29.92,South,177,5.4,11.0,68,0.00,,-RA,0.28,VWS V13.00,2013-05-25 16:52:00,
2013-05-25 12:57:00,48.9,38.8,29.92,NE,52,0.0,11.0,68,0.00,,-RA,0.28,VWS V13.00,2013-05-25 16:57:00,
2013-05-25 13:02:00,48.9,38.5,29.92,SE,143,2.2,4.9,67,0.00,,-RA,0.28,VWS V13.00,2013-05-25 17:02:00,
2013-05-25 13:07:00,49.1,38.6,29.92,East,100,0.0,8.1,67,0.00,,-RA,0.28,VWS V13.00,2013-05-25 17:07:00,
2013-05-25 13:12:00,49.3,38.8,29.92,ESE,113,3.6,8.1,67,0.00,,-RA,0.28,VWS V13.00,2013-05-25 17:12:00,
2013-05-25 13:17:00,49.5,39.0,29.92,SW,229,0.0,8.1,67,0.00,,-RA,0.28,VWS V13.00,2013-05-25 17:17:00,
2013-05-25 13:22:00,49.5,39.0,29.92,SE,146,2.7,5.4,67,0.00,,-RA,0.28,VWS V13.00,2013-05-25 17:22:00,
2013-05-25 13:27:00,49.6,39.5,29.92,SW,232,6.3,8.3,68,0.00,,-RA,0.28,VWS V13.00,2013-05-25 17:27:00,
2013-05-25 13:32:00,49.6,38.8,29.92,SSW,211,0.0,8.3,66,0.00,,-RA,0.28,VWS V13.00,2013-05-25 17:32:00,
2013-05-25 13:38:00,49.8,38.9,29.92,ESE,121,2.7,8.3,66,0.00,,OVC048,0.28,VWS V13.00,2013-05-25 17:38:00,
2013-05-25 13:43:00,50.2,39.3,29.92,East,98,6.3,7.6,66,0.00,,OVC048,0.28,VWS V13.00,2013-05-25 17:43:00,
2013-05-25 13:48:00,50.4,38.7,29.92,ESE,115,0.0,8.3,64,0.00,,OVC048,0.28,VWS V13.00,2013-05-25 17:48:00,
2013-05-25 13:53:00,50.7,38.2,29.92,South,180,5.4,8.3,62,0.00,,OVC048,0.28,VWS V13.00,2013-05-25 17:53:00,
2013-05-25 13:58:00,51.4,38.9,29.92,WSW,246,4.0,8.3,62,0.00,,OVC048,0.28,VWS V13.00,2013-05-25 17:58:00,
2013-05-25 14:03:00,51.6,38.2,29.92,South,180,4.0,8.3,60,0.00,,OVC048,0.28,VWS V13.00,2013-05-25 18:03:00,
2013-05-25 14:08:00,51.4,37.6,29.92,SE,126,3.1,8.3,59,0.00,,OVC048,0.28,VWS V13.00,2013-05-25 18:08:00,
2013-05-25 14:13:00,52.0,37.2,29.92,SSW,202,5.8,10.1,57,0.00,,OVC048,0.28,VWS V13.00,2013-05-25 18:13:00,
2013-05-25 14:18:00,52.5,37.7,29.92,WSW,237,4.0,10.1,57,0.00,,OVC048,0.28,VWS V13.00,2013-05-25 18:18:00,
2013-05-25 14:23:00,52.5,37.3,29.92,SSW,192,3.1,12.3,56,0.00,,OVC048,0.28,VWS V13.00,2013-05-25 18:23:00,
2013-05-25 14:28:00,52.2,37.4,29.92,North,357,3.6,12.3,57,0.00,,OVC048,0.28,VWS V13.00,2013-05-25 18:28:00,
2013-05-25 14:33:00,52.3,37.1,29.92,SSE,162,0.0,12.3,56,0.00,,BKN055,0.28,VWS V13.00,2013-05-25 18:33:00,
2013-05-25 14:39:00,52.3,37.1,29.92,ENE,63,3.1,12.3,56,0.00,,OVC048,0.28,VWS V13.00,2013-05-25 18:39:00,
2013-05-25 14:44:00,52.2,37.0,29.92,SW,221,3.1,6.3,56,0.00,,BKN055,0.28,VWS V13.00,2013-05-25 18:44:00,
2013-05-25 14:49:00,52.3,37.1,29.92,NE,56,0.0,8.3,56,0.00,,BKN055,0.28,VWS V13.00,2013-05-25 18:49:00,
2013-05-25 14:54:00,52.3,37.1,29.92,SE,140,2.2,8.3,56,0.00,,BKN055,0.28,VWS V13.00,2013-05-25 18:54:00,
2013-05-25 14:59:00,52.3,37.1,29.92,ESE,110,2.7,10.5,56,0.00,,BKN055,0.28,VWS V13.00,2013-05-25 18:59:00,
2013-05-25 15:04:00,54.5,37.2,29.92,SE,126,6.3,8.7,52,0.00,,BKN055,0.28,VWS V13.00,2013-05-25 19:04:00,
2013-05-25 15:09:00,54.5,37.2,29.92,South,189,5.4,11.0,52,0.00,,BKN055,0.28,VWS V13.00,2013-05-25 19:09:00,
2013-05-25 15:14:00,54.0,36.3,29.92,NW,318,2.7,11.0,51,0.00,,BKN055,0.28,VWS V13.00,2013-05-25 19:14:00,
2013-05-25 15:19:00,53.2,36.1,29.92,SSW,204,4.0,11.0,52,0.00,,BKN055,0.28,VWS V13.00,2013-05-25 19:19:00,
2013-05-25 15:24:00,53.1,35.9,29.92,WSW,245,5.4,8.3,52,0.00,,BKN055,0.28,VWS V13.00,2013-05-25 19:24:00,
2013-05-25 15:29:00,53.1,35.9,29.92,South,188,4.5,9.6,52,0.00,,BKN055,0.28,VWS V13.00,2013-05-25 19:29:00,
2013-05-25 15:34:00,53.1,35.9,29.92,SSE,156,3.6,9.6,52,0.00,,BKN055,0.28,VWS V13.00,2013-05-25 19:34:00,
2013-05-25 15:39:00,53.1,35.9,29.92,SW,228,5.4,9.6,52,0.00,,-RA,0.28,VWS V13.00,2013-05-25 19:39:00,
2013-05-25 15:44:00,52.5,35.4,29.92,SSE,147,5.8,6.3,52,0.00,,-RA,0.28,VWS V13.00,2013-05-25 19:44:00,
2013-05-25 15:49:00,52.9,36.7,29.92,ENE,74,2.2,10.1,54,0.00,,-RA,0.28,VWS V13.00,2013-05-25 19:49:00,
2013-05-25 15:54:00,52.7,36.1,29.92,South,185,8.7,10.1,53,0.00,,-RA,0.28,VWS V13.00,2013-05-25 19:54:00,
2013-05-25 16:00:00,52.2,35.6,29.92,SE,144,2.2,10.1,53,0.00,,-RA,0.28,VWS V13.00,2013-05-25 20:00:00,
2013-05-25 16:05:00,51.8,35.2,29.92,NNW,334,13.2,13.2,53,0.00,,-RA,0.28,VWS V13.00,2013-05-25 20:05:00,
2013-05-25 16:10:00,51.8,35.2,29.92,South,185,3.6,13.2,53,0.00,,-RA,0.28,VWS V13.00,2013-05-25 20:10:00,
2013-05-25 16:15:00,51.8,35.2,29.92,NNE,27,3.1,13.2,53,0.00,,-RA,0.28,VWS V13.00,2013-05-25 20:15:00,
2013-05-25 16:20:00,51.8,35.2,29.92,East,100,3.1,13.2,53,0.00,,-RA,0.28,VWS V13.00,2013-05-25 20:20:00,
2013-05-25 16:25:00,51.8,35.2,29.92,West,279,3.6,7.2,53,0.00,,-RA,0.28,VWS V13.00,2013-05-25 20:25:00,
2013-05-25 16:30:00,52.5,36.4,29.92,SSW,202,3.1,7.2,54,0.00,,-RA,0.28,VWS V13.00,2013-05-25 20:30:00,
2013-05-25 16:35:00,52.5,36.4,29.92,SSE,158,3.6,7.6,54,0.00,,BKN070,0.28,VWS V13.00,2013-05-25 20:35:00,
2013-05-25 16:40:00,52.3,35.2,29.92,ESE,114,2.7,7.6,52,0.00,,BKN070,0.28,VWS V13.00,2013-05-25 20:40:00,
2013-05-25 16:45:00,53.1,35.4,29.92,ESE,102,2.7,7.6,51,0.00,,BKN070,0.28,VWS V13.00,2013-05-25 20:45:00,
2013-05-25 16:50:00,53.2,34.6,29.92,SSE,164,5.4,7.6,49,0.00,,BKN070,0.28,VWS V13.00,2013-05-25 20:50:00,
2013-05-25 16:55:00,53.6,34.9,29.92,North,6,2.7,7.6,49,0.00,,BKN070,0.28,VWS V13.00,2013-05-25 20:55:00,
2013-05-25 17:00:00,53.2,34.6,29.92,East,95,2.7,12.3,49,0.00,,BKN070,0.28,VWS V13.00,2013-05-25 21:00:00,
2013-05-25 17:05:00,52.9,33.7,29.92,SE,146,0.0,8.1,48,0.00,,BKN070,0.28,VWS V13.00,2013-05-25 21:05:00,
2013-05-25 17:10:00,52.7,33.6,29.92,South,172,3.1,11.0,48,0.00,,BKN070,0.28,VWS V13.00,2013-05-25 21:10:00,
2013-05-25 17:15:00,52.7,33.0,29.92,SW,224,13.2,13.2,47,0.00,,BKN070,0.28,VWS V13.00,2013-05-25 21:15:00,
2013-05-25 17:20:00,52.5,32.9,29.92,SSE,152,4.0,13.2,47,0.00,,BKN070,0.28,VWS V13.00,2013-05-25 21:20:00,
2013-05-25 17:25:00,52.2,32.6,29.92,WSW,239,5.4,8.7,47,0.00,,BKN070,0.28,VWS V13.00,2013-05-25 21:25:00,
2013-05-25 17:30:00,52.0,32.9,29.92,SSW,207,8.1,8.7,48,0.00,,BKN070,0.28,VWS V13.00,2013-05-25 21:30:00,
2013-05-25 17:36:00,52.0,33.4,29.92,WSW,241,2.7,8.7,49,0.00,,BKN055,0.28,VWS V13.00,2013-05-25 21:36:00,
2013-05-25 17:41:00,52.0,33.4,29.92,South,181,5.4,5.4,49,0.00,,BKN055,0.28,VWS V13.00,2013-05-25 21:41:00,
2013-05-25 17:46:00,52.0,33.9,29.92,SE,128,0.0,6.3,50,0.00,,BKN055,0.28,VWS V13.00,2013-05-25 21:46:00,
2013-05-25 17:51:00,52.0,33.9,29.92,ENE,78,3.1,6.3,50,0.00,,BKN055,0.28,VWS V13.00,2013-05-25 21:51:00,
2013-05-25 17:56:00,51.8,33.8,29.95,South,178,2.7,10.1,50,0.00,,BKN055,0.28,VWS V13.00,2013-05-25 21:56:00,
2013-05-25 18:01:00,51.6,33.1,29.95,SE,126,3.6,3.6,49,0.00,,BKN055,0.28,VWS V13.00,2013-05-25 22:01:00,
2013-05-25 18:06:00,51.4,32.9,29.95,SSE,164,10.5,11.4,49,0.00,,BKN055,0.28,VWS V13.00,2013-05-25 22:06:00,
2013-05-25 18:11:00,51.3,32.8,29.95,South,191,2.2,11.4,49,0.00,,BKN055,0.28,VWS V13.00,2013-05-25 22:11:00,
2013-05-25 18:16:00,51.3,32.8,29.95,ESE,123,3.1,11.4,49,0.00,,BKN055,0.28,VWS V13.00,2013-05-25 22:16:00,
2013-05-25 18:21:00,51.3,32.3,29.95,South,191,6.7,6.7,48,0.00,,BKN055,0.28,VWS V13.00,2013-05-25 22:21:00,
2013-05-25 18:26:00,51.1,32.1,29.95,SSE,154,0.0,8.3,48,0.00,,BKN055,0.28,VWS V13.00,2013-05-25 22:26:00,
2013-05-25 18:31:00,51.1,31.6,29.95,South,177,4.9,11.0,47,0.00,,BKN055,0.28,VWS V13.00,2013-05-25 22:31:00,
2013-05-25 18:36:00,50.9,31.4,29.95,SE,141,2.2,11.0,47,0.00,,OVC060,0.28,VWS V13.00,2013-05-25 22:36:00,
2013-05-25 18:41:00,50.7,31.8,29.95,SE,143,3.6,3.6,48,0.00,,OVC060,0.28,VWS V13.00,2013-05-25 22:41:00,
2013-05-25 18:47:00,50.5,32.1,29.95,South,186,5.8,7.2,49,0.00,,OVC060,0.28,VWS V13.00,2013-05-25 22:47:00,
2013-05-25 18:52:00,50.4,32.4,29.95,SSW,193,4.0,7.2,50,0.00,,OVC060,0.28,VWS V13.00,2013-05-25 22:52:00,
2013-05-25 18:57:00,50.4,31.9,29.95,South,181,2.7,7.2,49,0.00,,OVC060,0.28,VWS V13.00,2013-05-25 22:57:00,
2013-05-25 19:02:00,50.4,31.9,29.95,West,261,5.4,6.3,49,0.00,,OVC060,0.28,VWS V13.00,2013-05-25 23:02:00,
2013-05-25 19:07:00,50.2,31.8,29.95,ESE,104,4.0,8.3,49,0.00,,OVC060,0.28,VWS V13.00,2013-05-25 23:07:00,
2013-05-25 19:12:00,50.2,31.8,29.95,SSW,199,2.7,8.3,49,0.00,,OVC060,0.28,VWS V13.00,2013-05-25 23:12:00,
2013-05-25 19:17:00,50.2,32.3,29.95,ESE,112,2.2,8.3,50,0.00,,OVC060,0.28,VWS V13.00,2013-05-25 23:17:00,
2013-05-25 19:22:00,50.2,32.3,29.95,WSW,255,2.2,2.7,50,0.00,,OVC060,0.28,VWS V13.00,2013-05-25 23:22:00,
2013-05-25 19:27:00,50.0,32.6,29.98,South,189,3.6,5.8,51,0.00,,OVC060,0.28,VWS V13.00,2013-05-25 23:27:00,
2013-05-25 19:32:00,50.0,32.1,29.98,SSW,209,0.0,5.8,50,0.00,,OVC060,0.28,VWS V13.00,2013-05-25 23:32:00,
2013-05-25 19:37:00,50.0,32.1,29.98,SSW,202,3.6,5.8,50,0.00,,OVC090,0.28,VWS V13.00,2013-05-25 23:37:00,
2013-05-25 19:42:00,49.8,31.9,29.98,SE,143,2.7,3.6,50,0.00,,OVC090,0.28,VWS V13.00,2013-05-25 23:42:00,
2013-05-25 19:47:00,49.8,32.4,29.98,ESE,121,2.2,5.8,51,0.00,,OVC090,0.28,VWS V13.00,2013-05-25 23:47:00,
2013-05-25 19:53:00,49.8,32.4,29.98,WSW,258,4.0,5.8,51,0.00,,OVC090,0.28,VWS V13.00,2013-05-25 23:53:00,
2013-05-25 19:58:00,49.8,31.9,29.98,WSW,247,2.7,5.8,50,0.00,,OVC090,0.28,VWS V13.00,2013-05-25 23:58:00,
2013-05-25 20:03:00,49.8,31.4,29.98,WSW,237,3.1,6.3,49,0.00,,OVC090,0.28,VWS V13.00,2013-05-26 00:03:00,
2013-05-25 20:08:00,49.8,31.4,29.98,SE,141,3.6,6.3,49,0.00,,OVC090,0.28,VWS V13.00,2013-05-26 00:08:00,
2013-05-25 20:13:00,49.5,31.6,29.98,East,95,3.1,6.3,50,0.00,,OVC085,0.28,VWS V13.00,2013-05-26 00:13:00,
2013-05-25 20:18:00,49.5,32.1,29.98,WSW,258,3.6,6.3,51,0.00,,OVC085,0.28,VWS V13.00,2013-05-26 00:18:00,
2013-05-25 20:23:00,49.6,31.8,29.98,South,179,4.0,6.3,50,0.00,,OVC085,0.28,VWS V13.00,2013-05-26 00:23:00,
2013-05-25 20:28:00,49.6,31.3,29.98,West,260,6.3,8.3,49,0.00,,OVC085,0.28,VWS V13.00,2013-05-26 00:28:00,
2013-05-25 20:33:00,49.6,31.3,29.98,East,101,2.2,8.3,49,0.00,,OVC085,0.28,VWS V13.00,2013-05-26 00:33:00,
2013-05-25 20:38:00,49.5,31.1,29.98,SE,137,5.4,8.3,49,0.00,,OVC085,0.28,VWS V13.00,2013-05-26 00:38:00,
2013-05-25 20:43:00,49.6,30.8,29.98,SSW,207,4.0,12.8,48,0.00,,OVC085,0.28,VWS V13.00,2013-05-26 00:43:00,
2013-05-25 20:48:00,49.3,31.0,29.98,East,89,3.1,12.8,49,0.00,,OVC085,0.28,VWS V13.00,2013-05-26 00:48:00,
2013-05-25 20:53:00,49.3,31.0,29.98,SSE,165,5.8,12.8,49,0.00,,OVC085,0.28,VWS V13.00,2013-05-26 00:53:00,
2013-05-25 20:58:00,49.1,30.8,29.98,SSW,193,3.1,12.8,49,0.00,,OVC085,0.28,VWS V13.00,2013-05-26 00:58:00,
2013-05-25 21:03:00,49.1,30.8,29.98,SE,134,2.7,6.3,49,0.00,,OVC085,0.28,VWS V13.00,2013-05-26 01:03:00,
2013-05-25 21:09:00,48.9,30.6,29.98,West,268,5.8,9.2,49,0.00,,OVC085,0.28,VWS V13.00,2013-05-26 01:09:00,
2013-05-25 21:14:00,48.9,30.6,29.98,WSW,239,2.7,9.2,49,0.00,,OVC085,0.28,VWS V13.00,2013-05-26 01:14:00,
2013-05-25 21:19:00,48.9,30.6,29.98,East,95,4.0,10.1,49,0.00,,OVC085,0.28,VWS V13.00,2013-05-26 01:19:00,
2013-05-25 21:24:00,48.7,30.5,29.98,WSW,240,4.0,7.6,49,0.00,,OVC085,0.28,VWS V13.00,2013-05-26 01:24:00,
2013-05-25 21:29:00,48.6,30.8,29.98,SE,144,2.7,7.6,50,0.00,,OVC085,0.28,VWS V13.00,2013-05-26 01:29:00,
2013-05-25 21:34:00,48.6,30.8,29.98,WSW,249,3.1,7.6,50,0.00,,OVC090,0.28,VWS V13.00,2013-05-26 01:34:00,
2013-05-25 21:39:00,48.6,30.8,29.98,SSE,149,3.1,8.7,50,0.00,,OVC090,0.28,VWS V13.00,2013-05-26 01:39:00,
2013-05-25 21:44:00,48.4,30.6,29.98,SW,225,2.7,5.8,50,0.00,,OVC090,0.28,VWS V13.00,2013-05-26 01:44:00,
2013-05-25 21:49:00,48.4,30.6,29.98,WNW,296,3.1,8.3,50,0.00,,OVC090,0.28,VWS V13.00,2013-05-26 01:49:00,
2013-05-25 21:54:00,48.4,30.6,29.98,SSE,156,0.0,8.3,50,0.00,,OVC090,0.28,VWS V13.00,2013-05-26 01:54:00,
2013-05-25 21:59:00,48.2,30.9,29.98,WNW,299,2.2,8.3,51,0.00,,OVC090,0.28,VWS V13.00,2013-05-26 01:59:00,
2013-05-25 22:04:00,48.2,30.9,29.98,SSW,201,2.2,4.0,51,0.00,,OVC090,0.28,VWS V13.00,2013-05-26 02:04:00,
2013-05-25 22:09:00,48.0,31.2,29.98,SW,224,3.6,5.8,52,0.00,,OVC090,0.28,VWS V13.00,2013-05-26 02:09:00,
2013-05-25 22:15:00,48.2,31.4,29.98,SW,215,2.2,5.8,52,0.00,,OVC090,0.28,VWS V13.00,2013-05-26 02:15:00,
2013-05-25 22:19:00,48.0,31.2,29.98,SSW,193,4.0,7.6,52,0.00,,OVC090,0.28,VWS V13.00,2013-05-26 02:19:00,
2013-05-25 22:25:00,48.2,30.9,29.98,WNW,301,3.6,5.8,51,0.00,,OVC090,0.28,VWS V13.00,2013-05-26 02:25:00,
2013-05-25 22:30:00,48.4,31.1,29.98,SSW,193,3.1,5.8,51,0.00,,OVC090,0.28,VWS V13.00,2013-05-26 02:30:00,
2013-05-25 22:35:00,48.0,31.7,29.98,SSW,205,2.7,7.6,53,0.00,,OVC090,0.28,VWS V13.00,2013-05-26 02:35:00,
2013-05-25 22:40:00,48.2,31.4,29.98,SSW,196,3.1,7.6,52,0.00,,OVC085,0.28,VWS V13.00,2013-05-26 02:40:00,
2013-05-25 22:45:00,48.2,31.4,29.98,West,265,4.0,6.3,52,0.00,,OVC085,0.28,VWS V13.00,2013-05-26 02:45:00,
2013-05-25 22:50:00,48.2,31.4,29.98,SW,224,2.7,6.3,52,0.00,,OVC085,0.28,VWS V13.00,2013-05-26 02:50:00,
2013-05-25 22:55:00,48.6,31.3,29.98,WNW,291,4.9,10.5,51,0.00,,OVC085,0.28,VWS V13.00,2013-05-26 02:55:00,
2013-05-25 23:00:00,48.2,30.9,29.98,ESE,111,2.7,10.5,51,0.00,,OVC085,0.28,VWS V13.00,2013-05-26 03:00:00,
2013-05-25 23:05:00,48.2,30.9,29.98,WSW,240,2.7,4.9,51,0.00,,OVC085,0.28,VWS V13.00,2013-05-26 03:05:00,
2013-05-25 23:10:00,48.0,31.2,29.98,SSE,160,3.6,5.8,52,0.00,,OVC085,0.28,VWS V13.00,2013-05-26 03:10:00,
2013-05-25 23:15:00,48.0,31.2,29.98,SSE,159,4.0,6.3,52,0.00,,OVC085,0.28,VWS V13.00,2013-05-26 03:15:00,
2013-05-25 23:20:00,48.0,31.2,29.98,SE,129,0.0,6.3,52,0.00,,OVC085,0.28,VWS V13.00,2013-05-26 03:20:00,
2013-05-25 23:25:00,47.8,31.1,29.98,SSE,156,3.6,4.0,52,0.00,,OVC085,0.28,VWS V13.00,2013-05-26 03:25:00,
2013-05-25 23:30:00,48.0,31.2,29.98,ESE,103,0.0,4.0,52,0.00,,OVC085,0.28,VWS V13.00,2013-05-26 03:30:00,
2013-05-25 23:36:00,47.8,31.5,29.98,South,188,0.0,4.0,53,0.00,,OVC070,0.28,VWS V13.00,2013-05-26 03:36:00,
2013-05-25 23:41:00,47.7,32.3,29.98,South,188,0.0,4.0,55,0.00,,OVC070,0.28,VWS V13.00,2013-05-26 03:41:00,
2013-05-25 23:46:00,47.5,33.0,29.98,South,188,0.0,0.0,57,0.00,,OVC070,0.28,VWS V13.00,2013-05-26 03:46:00,
2013-05-25 23:51:00,47.5,33.0,29.98,ESE,123,0.0,3.6,57,0.00,,OVC070,0.28,VWS V13.00,2013-05-26 03:51:00,
2013-05-25 23:56:00,47.3,33.3,29.98,SW,215,2.7,4.9,58,0.00,,OVC070,0.28,VWS V13.00,2013-05-26 03:56:00,